Location: Unspecified
(0.0000°N, 0.0000°E)
Time: 22:32:28
(UTC+00:00)

Explorer 7 - All Passes

Search period start: 06 May 2016 00:00
Search period end: 16 May 2016 00:00
Orbit: 487 x 687 km, 50.3° (Epoch: 05 May)

Date Brightness Start Highest point End Pass type
(mag) Time Alt. Az. Time Alt. Az. Time Alt. Az.
06 May - 04:58:15 10° SSW 05:02:00 35° SE 05:05:58 10° ENE visible
06 May - 06:40:24 10° W 06:42:34 14° NW 06:44:47 10° NNW daylight
06 May - 17:01:29 10° NNW 17:06:02 58° NE 17:10:20 10° SE daylight
07 May - 05:04:23 10° SW 05:08:27 84° SE 05:12:47 10° NE visible
07 May - 17:07:55 10° NW 17:12:31 63° SW 17:16:50 10° SSE daylight
08 May - 03:33:40 10° SE 03:34:34 11° SE 03:35:28 10° ESE visible
08 May - 05:11:06 10° WSW 05:14:56 40° NW 05:19:01 10° NNE visible
08 May - 15:35:00 10° N 15:38:25 20° NE 15:41:43 10° E daylight
08 May - 17:14:57 10° WNW 17:18:57 29° SW 17:22:47 10° S daylight
09 May - 03:37:49 10° S 03:41:02 23° SE 03:44:23 10° ENE visible
09 May - 05:18:34 10° W 05:21:29 19° NW 05:24:32 10° N visible
09 May - 15:40:30 10° NNW 15:44:57 40° NE 15:49:12 10° ESE daylight
09 May - 17:23:00 10° W 17:25:25 14° SW 17:27:45 10° SSW daylight
10 May - 03:43:36 10° SSW 03:47:28 54° SE 03:51:34 10° NE visible
10 May - 15:46:40 10° NW 15:51:27 87° NE 15:55:57 10° SE daylight
11 May - 03:50:02 10° SW 03:53:56 61° NW 03:58:04 10° NNE visible
11 May - 14:14:41 10° NNE 14:17:16 14° NE 14:19:48 10° E daylight
11 May - 15:53:24 10° NW 15:57:54 43° SW 16:02:10 10° SSE daylight
12 May - 02:17:41 10° SSE 02:20:03 15° SE 02:22:29 10° E night (unlit)
12 May - 03:57:05 10° WSW 04:00:26 26° NW 04:03:57 10° N visible
12 May - 14:19:40 10° N 14:23:50 29° NE 14:27:51 10° ESE daylight
12 May - 16:00:48 10° WNW 16:04:20 21° SW 16:07:45 10° S daylight
13 May - 02:22:57 10° SSW 02:26:29 34° SE 02:30:11 10° ENE night (unlit)
13 May - 04:05:24 10° WNW 04:07:01 12° NW 04:08:38 10° NNW visible
13 May - 14:25:33 10° NNW 14:30:20 60° NE 14:34:54 10° SE daylight
14 May - 02:29:04 10° SW 02:32:56 86° SE 02:37:00 10° NE night (unlit)
14 May - 12:55:36 10° NE 12:56:05 10° NE 12:56:34 10° NE daylight
14 May - 14:32:00 10° NW 14:36:48 64° SW 14:41:23 10° SSE daylight
15 May - 02:35:48 10° WSW 02:39:25 38° NW 02:43:11 10° NNE night (unlit)
15 May - 12:59:00 10° N 13:02:40 21° NE 13:06:15 10° E daylight
15 May - 14:39:01 10° WNW 14:43:14 30° SW 14:47:18 10° S daylight
